Tracking 17996 objects as of 28-February-2017
HD Live streaming from Space Station
objects crossing your sky now

TANSUO 2

Track TANSUO 2 now!
10-day predictions
TANSUO 2 is classified as:


NORAD ID: 28479
Int'l Code: 2004-046A
Perigee: 692.1 km
Apogee: 708.5 km
Inclination: 98.2 °
Period: 98.6 minutes
Semi major axis: 7071 km
RCS: 1.44 m2 (large)
Launch date: November 18, 2004
Source: People's Republic of China (PRC)
Launch site: Xichang Space Center, China (XSC)
Your satellite tracking list
Your tracking list is empty





NASA's NSSDC Master Catalog

Two Line Element Set (TLE):
1 28479U 04046A   17058.85387600  .00000150  00000-0  40566-4 0  9993
2 28479  98.2198  76.9344 0011621 108.0834 252.1633 14.60655271653561
Source of the keplerian elements: AFSPC